Location: Dziadowski
(50.3833°N, 20.0333°E)
Time: 20:55:14
(UTC+00:00)

FAST Rocket - Pass Details

Date: 18 January 2026
Orbit: 342 x 3026 km, 82.9° (Epoch: 17 February)

Event Time Altitude Azimuth Distance (km) Brightness Sun altitude
Rises 05:20:30 0° 350° (N) 2,562 7.9 -11.0°
Reaches altitude 10° 05:22:48 10° 351° (N) 1,491 6.8 -10.7°
Maximum altitude 05:25:47 87° 82° (E) 362 3.9 -10.2°
Drops below altitude 10° 05:28:22 10° 171° (S) 1,295 7.1 -9.9°
Sets 05:30:15 0° 171° (S) 2,173 8.3 -9.6°
